EZY25XH EGKK-LSZH

Flight info

Callsign EZY25XH
Flight time 1h 11m
Altitude 29000
Route ODVIK Y311 DVR UL9 KONAN DCT KOK DCT REMBA DCT RITAX DCT SUTAL DCT GTQ DCT BAMEV DCT BLM
Aircraft A20N/M-SDE2E3FGHIJ1RWXYZ/LB1G1

Departure

Time 2026-05-04 10:29
Airport London Gatwick Airport (EGKK)

Arrival

Time 2026-05-04 11:41
Airport Zürich Airport (LSZH)
Time Latitude Longitude Altitude Speed Heading
2026-05-04 09:54 51.15575 -0.17762 205 ft 0 kts 347°
2026-05-04 10:11 51.15566 -0.17759 204 ft 2 kts 347°
2026-05-04 10:12 51.15551 -0.17753 209 ft 2 kts 346°
2026-05-04 10:12 51.15537 -0.17746 215 ft 2 kts 329°
2026-05-04 10:12 51.15527 -0.17736 217 ft 1 kts 313°
2026-05-04 10:12 51.15522 -0.17726 217 ft 1 kts 302°
2026-05-04 10:13 51.15518 -0.17715 210 ft 1 kts 289°
2026-05-04 10:13 51.15515 -0.17703 204 ft 1 kts 265°
2026-05-04 10:13 51.15515 -0.17702 216 ft 0 kts 262°
2026-05-04 10:16 51.15522 -0.17635 208 ft 0 kts 258°
2026-05-04 10:17 51.15521 -0.17643 210 ft 2 kts 258°
2026-05-04 10:17 51.15515 -0.17692 210 ft 7 kts 258°
2026-05-04 10:19 51.15188 -0.18284 214 ft 8 kts 272°
2026-05-04 10:19 51.15182 -0.18373 209 ft 10 kts 257°
2026-05-04 10:19 51.15164 -0.18495 208 ft 13 kts 257°
2026-05-04 10:19 51.15142 -0.18651 209 ft 16 kts 257°
2026-05-04 10:20 51.15117 -0.18840 209 ft 19 kts 258°
2026-05-04 10:20 51.15087 -0.19054 207 ft 21 kts 257°
2026-05-04 10:20 51.15055 -0.19290 215 ft 21 kts 257°
2026-05-04 10:20 51.15025 -0.19511 208 ft 18 kts 257°
2026-05-04 10:21 51.15000 -0.19687 215 ft 13 kts 257°
2026-05-04 10:21 51.14981 -0.19821 211 ft 14 kts 257°
2026-05-04 10:21 51.14959 -0.19987 204 ft 17 kts 257°
2026-05-04 10:21 51.14932 -0.20178 207 ft 18 kts 257°
2026-05-04 10:22 51.14872 -0.20617 209 ft 23 kts 257°
2026-05-04 10:22 51.14837 -0.20870 212 ft 20 kts 257°
2026-05-04 10:22 51.14814 -0.21031 209 ft 11 kts 257°
2026-05-04 10:23 51.14793 -0.21166 209 ft 14 kts 255°
2026-05-04 10:23 51.14766 -0.21322 213 ft 13 kts 256°
2026-05-04 10:25 51.14674 -0.21381 208 ft 0 kts 139°
2026-05-04 10:25 51.14672 -0.21379 207 ft 1 kts 138°
2026-05-04 10:25 51.14648 -0.21346 209 ft 8 kts 148°
2026-05-04 10:26 51.14620 -0.21331 208 ft 0 kts 167°
2026-05-04 10:26 51.14606 -0.21326 208 ft 6 kts 167°
2026-05-04 10:27 51.14534 -0.21259 205 ft 17 kts 122°
2026-05-04 10:27 51.14523 -0.21155 206 ft 0 kts 66°
2026-05-04 10:27 51.14524 -0.21149 206 ft 2 kts 75°
2026-05-04 10:27 51.14527 -0.21128 213 ft 1 kts 77°
2026-05-04 10:28 51.14573 -0.20790 213 ft 68 kts 78°
2026-05-04 10:28 51.14720 -0.19729 211 ft 127 kts 78°
2026-05-04 10:29 51.14949 -0.18101 251 ft 167 kts 77°
2026-05-04 10:29 51.15194 -0.16317 922 ft 163 kts 77°
2026-05-04 10:29 51.15421 -0.14545 1620 ft 164 kts 79°
2026-05-04 10:29 51.15645 -0.12757 2177 ft 170 kts 78°
2026-05-04 10:30 51.15866 -0.10948 2545 ft 183 kts 79°
2026-05-04 10:30 51.16126 -0.08821 2956 ft 200 kts 78°
2026-05-04 10:30 51.16436 -0.06541 3310 ft 224 kts 77°
2026-05-04 10:30 51.16772 -0.03985 3804 ft 247 kts 82°
2026-05-04 10:31 51.16836 -0.01161 4569 ft 260 kts 91°
2026-05-04 10:31 51.16791 0.01757 5454 ft 267 kts 92°
2026-05-04 10:32 51.16529 0.20505 10975 ft 297 kts 91°
2026-05-04 10:33 51.16550 0.23809 11840 ft 301 kts 91°
2026-05-04 10:33 51.16569 0.27164 12720 ft 305 kts 91°
2026-05-04 10:33 51.16583 0.30567 13571 ft 309 kts 91°
2026-05-04 10:33 51.16592 0.34013 14352 ft 313 kts 91°
2026-05-04 10:34 51.16595 0.37480 15108 ft 317 kts 91°
2026-05-04 10:34 51.16594 0.41014 15845 ft 321 kts 91°
2026-05-04 10:34 51.16591 0.44589 16592 ft 324 kts 92°
2026-05-04 10:34 51.16588 0.48201 17311 ft 329 kts 91°
2026-05-04 10:35 51.16583 0.51903 17758 ft 343 kts 91°
2026-05-04 10:35 51.16580 0.55808 17972 ft 363 kts 91°
2026-05-04 10:35 51.16577 0.59936 18189 ft 381 kts 91°
2026-05-04 10:35 51.16573 0.64206 18686 ft 388 kts 91°
2026-05-04 10:36 51.16570 0.68501 19333 ft 390 kts 91°
2026-05-04 10:36 51.16564 0.72849 19957 ft 394 kts 92°
2026-05-04 10:36 51.16555 0.77227 20572 ft 397 kts 92°
2026-05-04 10:36 51.16544 0.81649 21185 ft 401 kts 92°
2026-05-04 10:37 51.16531 0.86113 21788 ft 404 kts 92°
2026-05-04 10:37 51.16509 0.90603 22386 ft 407 kts 94°
2026-05-04 10:37 51.16043 0.95041 22955 ft 406 kts 110°
2026-05-04 10:37 51.14901 0.99166 23299 ft 412 kts 121°
2026-05-04 10:39 51.06563 1.23471 26363 ft 425 kts 122°
2026-05-04 10:39 51.05159 1.27608 26819 ft 427 kts 122°
2026-05-04 10:39 51.03740 1.31781 27279 ft 430 kts 123°
2026-05-04 10:40 51.02313 1.35967 27704 ft 432 kts 123°
2026-05-04 10:40 51.00876 1.40169 28129 ft 434 kts 123°
2026-05-04 10:40 50.99431 1.44388 28574 ft 435 kts 123°
2026-05-04 10:40 50.97996 1.48569 28820 ft 437 kts 123°
2026-05-04 10:41 50.96540 1.52800 28923 ft 437 kts 123°
2026-05-04 10:41 50.94097 1.59886 29005 ft 437 kts 123°
2026-05-04 10:42 50.91175 1.68334 29009 ft 437 kts 123°
2026-05-04 10:42 50.88244 1.76781 29009 ft 437 kts 123°
2026-05-04 10:43 50.85313 1.85201 29006 ft 435 kts 123°
2026-05-04 10:45 50.73509 2.18822 29018 ft 437 kts 124°
2026-05-04 10:45 50.70544 2.27196 28992 ft 437 kts 124°
2026-05-04 10:46 50.67571 2.35565 28998 ft 438 kts 124°
2026-05-04 10:46 50.64602 2.43894 28990 ft 438 kts 124°
2026-05-04 10:47 50.61616 2.52247 28981 ft 436 kts 124°
2026-05-04 10:47 50.58668 2.60474 28988 ft 432 kts 125°
2026-05-04 10:49 50.46799 2.93294 28990 ft 431 kts 126°
2026-05-04 10:50 50.43830 3.01437 28989 ft 431 kts 126°
2026-05-04 10:52 50.31862 3.34019 28989 ft 433 kts 127°
2026-05-04 10:52 50.28849 3.42159 28984 ft 432 kts 127°
2026-05-04 10:54 50.16695 3.74715 28994 ft 438 kts 126°
2026-05-04 10:56 50.04429 4.07178 28995 ft 433 kts 126°
2026-05-04 10:57 50.01358 4.15242 28996 ft 433 kts 126°
2026-05-04 10:57 49.98285 4.23287 28998 ft 433 kts 126°
2026-05-04 10:58 49.95203 4.31329 28999 ft 433 kts 126°
2026-05-04 10:58 49.92117 4.39359 29000 ft 433 kts 126°
2026-05-04 10:59 49.89028 4.47372 29000 ft 432 kts 126°
2026-05-04 10:59 49.85933 4.55374 28994 ft 433 kts 126°
2026-05-04 11:00 49.82815 4.63398 28999 ft 435 kts 126°
2026-05-04 11:02 49.70297 4.95428 28997 ft 435 kts 126°
2026-05-04 11:05 49.46622 5.54946 28999 ft 435 kts 127°
2026-05-04 11:06 49.43459 5.62800 29001 ft 434 kts 127°
2026-05-04 11:06 49.40274 5.70680 28994 ft 435 kts 127°
2026-05-04 11:10 49.17724 6.25826 29018 ft 437 kts 126°
2026-05-04 11:12 49.04689 6.57208 29014 ft 438 kts 127°
2026-05-04 11:12 49.01409 6.65057 29011 ft 441 kts 128°
2026-05-04 11:13 48.99550 6.68729 29014 ft 434 kts 139°
2026-05-04 11:13 48.97300 6.71725 29014 ft 427 kts 149°
2026-05-04 11:13 48.94757 6.73946 29019 ft 420 kts 160°
2026-05-04 11:13 48.92035 6.75562 29022 ft 419 kts 163°
2026-05-04 11:14 48.86604 6.78762 29020 ft 418 kts 162°
2026-05-04 11:16 48.64971 6.91522 29015 ft 418 kts 162°
2026-05-04 11:16 48.59555 6.94697 29014 ft 418 kts 162°
2026-05-04 11:17 48.54114 6.97877 29015 ft 420 kts 162°
2026-05-04 11:19 48.32323 7.10550 29002 ft 419 kts 163°
2026-05-04 11:19 48.26876 7.13698 29000 ft 419 kts 163°
2026-05-04 11:20 48.21427 7.16841 28991 ft 420 kts 163°
2026-05-04 11:20 48.15979 7.19977 28875 ft 420 kts 163°
2026-05-04 11:22 47.98049 7.30245 27068 ft 410 kts 163°
2026-05-04 11:22 47.95376 7.31769 26622 ft 411 kts 163°
2026-05-04 11:23 47.91847 7.33778 25867 ft 408 kts 162°
2026-05-04 11:23 47.90071 7.34789 25489 ft 406 kts 162°
2026-05-04 11:24 47.74702 7.43506 22160 ft 380 kts 162°
2026-05-04 11:25 47.72249 7.44892 21647 ft 374 kts 162°
2026-05-04 11:25 47.69833 7.46256 21119 ft 370 kts 162°
2026-05-04 11:25 47.67480 7.47583 20619 ft 366 kts 162°
2026-05-04 11:26 47.63302 7.51770 19568 ft 371 kts 131°
2026-05-04 11:27 47.56969 7.76877 15738 ft 373 kts 112°
2026-05-04 11:28 47.56122 7.80475 15234 ft 369 kts 112°
2026-05-04 11:28 47.55262 7.84119 14709 ft 367 kts 112°
2026-05-04 11:28 47.54425 7.87665 14118 ft 367 kts 112°
2026-05-04 11:28 47.53593 7.91181 13614 ft 364 kts 112°
2026-05-04 11:29 47.52748 7.94748 13064 ft 361 kts 112°
2026-05-04 11:29 47.51922 7.98229 12557 ft 358 kts 112°
2026-05-04 11:29 47.51102 8.01677 12037 ft 354 kts 112°
2026-05-04 11:29 47.50285 8.05101 11661 ft 349 kts 112°
2026-05-04 11:31 47.49482 8.25824 10164 ft 300 kts 34°
2026-05-04 11:33 47.60361 8.17259 7590 ft 273 kts 332°
2026-05-04 11:33 47.62200 8.16572 7233 ft 274 kts
2026-05-04 11:33 47.64044 8.17202 6889 ft 271 kts 29°
2026-05-04 11:34 47.65490 8.18942 6554 ft 268 kts 50°
2026-05-04 11:34 47.66606 8.21100 6220 ft 266 kts 56°
2026-05-04 11:34 47.67516 8.23484 5857 ft 262 kts 73°
2026-05-04 11:34 47.67732 8.25928 5651 ft 254 kts 97°
2026-05-04 11:35 47.67086 8.28306 5412 ft 250 kts 131°
2026-05-04 11:35 47.65885 8.29730 5303 ft 241 kts 143°
2026-05-04 11:35 47.64596 8.31199 5264 ft 227 kts 139°
2026-05-04 11:35 47.63451 8.32720 5154 ft 214 kts 135°
2026-05-04 11:36 47.62387 8.34176 5071 ft 203 kts 136°
2026-05-04 11:36 47.61365 8.35556 4978 ft 196 kts 135°
2026-05-04 11:36 47.60371 8.36912 4702 ft 197 kts 134°
2026-05-04 11:36 47.59397 8.38283 4530 ft 186 kts 134°
2026-05-04 11:37 47.58479 8.39552 4300 ft 177 kts 135°
2026-05-04 11:37 47.57575 8.40767 4111 ft 175 kts 135°
2026-05-04 11:37 47.56695 8.41988 3799 ft 175 kts 135°
2026-05-04 11:37 47.55832 8.43180 3629 ft 164 kts 135°
2026-05-04 11:38 47.55028 8.44286 3389 ft 152 kts 135°
2026-05-04 11:38 47.54267 8.45319 3123 ft 144 kts 136°
2026-05-04 11:38 47.53545 8.46286 2933 ft 139 kts 135°
2026-05-04 11:38 47.52837 8.47273 2738 ft 140 kts 135°
2026-05-04 11:39 47.52121 8.48274 2491 ft 142 kts 136°
2026-05-04 11:39 47.51383 8.49283 2298 ft 146 kts 136°
2026-05-04 11:40 47.47191 8.55006 1395 ft 87 kts 137°
2026-05-04 11:41 47.46846 8.55466 1399 ft 48 kts 138°
2026-05-04 11:41 47.46629 8.55669 1399 ft 35 kts 164°
2026-05-04 11:41 47.46508 8.55708 1397 ft 11 kts 169°
2026-05-04 11:41 47.46416 8.55733 1397 ft 15 kts 168°
2026-05-04 11:42 47.46338 8.55817 1401 ft 13 kts 130°
2026-05-04 11:42 47.46266 8.55898 1407 ft 11 kts 166°
2026-05-04 11:42 47.46232 8.55827 1401 ft 10 kts 269°
2026-05-04 11:42 47.46240 8.55701 1397 ft 14 kts 276°
2026-05-04 11:43 47.46252 8.55541 1405 ft 16 kts 276°
2026-05-04 11:43 47.46262 8.55399 1396 ft 11 kts 276°
2026-05-04 11:43 47.46267 8.55326 1401 ft 1 kts 276°
2026-05-04 11:43 47.46268 8.55314 1399 ft 3 kts 276°
2026-05-04 11:44 47.46269 8.55288 1396 ft 0 kts 275°
2026-05-04 11:44 47.46270 8.55286 1396 ft 1 kts 276°
2026-05-04 11:45 47.46266 8.55261 1407 ft 2 kts 228°
2026-05-04 11:45 47.46243 8.55254 1396 ft 4 kts 186°
2026-05-04 11:45 47.46206 8.55249 1396 ft 5 kts 186°
2026-05-04 11:45 47.46198 8.55247 1396 ft 0 kts 186°